SCOUT G-1 DEB

Satellite information

Favourite Embed

Satellite Type and Status

DEBRISIN ORBIT

Key statistics

Satellite SCOUT G-1 DEB at a glance.

Uptime

14692

Days in orbit

Revolutions

≈ 14.0

Per day

Orbit

LEO

Low Earth Orbit

Inclination

89.9

Latest

Satellite identification and parameters

Extended collection of information and parameters for SCOUT G-1 DEB.

Object identification

Identified? True

Debris? True

Object name: SCOUT G-1 DEB

International designator: 1985-066E

Object number (NORAD): 15951

Object ID (CCSDS): 15951

Country: UNITED STATES OF AMERICA (US)

Current information (Y/N): Y

RCS size: SMALL

Orbital parameters

Period: 102.879 minutes

Inclination: 89.8553 deg

SMA: 7272.948 km

Apoapsis: 983.442 km

Periapsis: 806.183 km

RAAN: 179.3925 deg

Eccentricy: 0.01218622

Argument of periapsis: 330.658 deg

Mean anomaly: 159.9892 deg

Mean motion: 13.99706795 rev/day

Mean motion (dot): 0.00006549 rev/day2

B* drag term: 0.0041922461 1/REarth

Two-line elements (TLE)

Creation date: Oct. 24, 2025, 2:48 a.m.

Reference frame: TEME

Reference center: EARTH

Epoch: Oct. 23, 2025, 9:08 p.m. UTC

TLE line 0: 0 SCOUT G-1 DEB

TLE line 1: 1 15951U 85066E 25296.88106223 .00006549 00000-0 41922-2 0 9994

TLE line 2: 2 15951 89.8553 179.3925 0121862 330.6580 159.9892 13.99706795 1439

Live tracking on map

Real-time ground track for satellite SCOUT G-1 DEB.

In-orbit conjunctions

A list of the most updated potential collisions computed for object SCOUT G-1 DEB.

Target Orbit TCA Probability of collision Miss distance Type
SL-8 R/B LEO 2025-02-15 08:42:09 0.0001319754 194.0 (m) ROCKET BODY

Associated space launch

The Transit-O series of satellites that closely followed the design of Transit 5C-1 were also called “Oscars” (Oscar is the phonetic alphabet for “O”, i. e., operational). They were also called NNS (Navy Navigation Satellite) or shortened NavSat.

SCOUT G-1 DEB was lifted into orbit during the mission ‘Scout G-1 | Transit-O 24,30’, on board a Scout G-1 space rocket.

The launch took place on Aug. 3, 1985, 3:31 a.m. from Space Launch Complex 5.

For more information about the launch, click the button.

Launch to space Scout G-1 | Transit-O 24,30
Scout G-1 | Transit-O 24,30

Agency: N/A

Status: Launch Successful

Launch date: Aug. 3, 1985, 3:31 a.m. UTC

Rocket: Scout G-1

Launch pad: Space Launch Complex 5

Location: Vandenberg SFB, CA, USA

...

Latest news about this satellite

There are no fresh news available about this satellite. Check back as we update our databases every day.


Newsletter sign-up

Weekly statistics, charts and insights to help you stay on top of the space industry.